[[{"header":{"parameterUnit":"m.s-1","parameterCategory":1,"la1":30.2992,"la2":30.254,"lo1":-89.0895,"lo2":-89.0443,"dy":0.0025,"dx":0.0025,"nx":19,"ny":19,"refTime":"2026-05-20T09:00:00:Z","depth":0,"parameterNumber":2,"parameterNumberName":"U-component_of_WINDS"},"data":[0,0,0,-2.7001,-2.7001,-2.699,-2.699,-2.6989,-2.6989,0,0,0,0,0,0,0,0,0,0,0,-2.7012,-2.7012,-2.7001,-2.7001,-2.699,-2.699,-2.6989,-2.6989,0,0,0,0,0,0,0,0,0,0,0,-2.7012,-2.7012,-2.7012,-2.7001,-2.699,-2.699,-2.6989,-2.6992,0,0,0,0,0,0,0,0,0,0,-2.7,-2.7018,-2.7012,-2.7012,-2.7001,-2.699,-2.699,-2.6992,-2.6992,-2.6999,0,-2.7007,0,-2.6998,-2.6989,-2.6989,0,0,0,-2.6995,-2.7018,-2.7008,-2.7012,-2.7001,-2.699,-2.6993,-2.6992,-2.6992,-2.6999,-2.7007,-2.7007,-2.6998,-2.699,-2.699,-2.7051,-2.7052,0,0,-2.6995,-2.7013,-2.7009,-2.7009,-2.7012,-2.6994,-2.6993,-2.6992,-2.7002,-2.7007,-2.7007,-2.6998,-2.699,-2.699,-2.7051,-2.7052,0,0,0,-2.7001,-2.7014,-2.7004,-2.7009,-2.7006,-2.6993,-2.6993,-2.7002,-2.6997,-2.7006,-2.6998,-2.699,-2.699,-2.705,-2.7051,-2.7096,0,0,0,-2.7001,-2.7017,-2.7005,-2.7016,-2.7007,-2.7004,-2.7003,-2.6997,-2.6996,-2.6998,-2.699,-2.699,-2.705,-2.7051,-2.7093,-2.7113,0,0,0,-2.701,-2.7018,-2.702,-2.7017,-2.7013,-2.7003,-2.6999,-2.6997,-2.6992,-2.6989,-2.699,-2.7049,-2.7051,-2.7091,-2.7109,-2.7133,0,0,0,-2.7024,-2.7059,-2.7021,-2.7057,-2.7013,-2.7032,-2.6998,-2.7011,-2.7015,-2.699,-2.705,-2.7051,-2.709,-2.7106,-2.7131,-2.7155,-2.7168,0,0,-2.7078,-2.7066,-2.7086,-2.7052,-2.7082,-2.7033,-2.707,-2.7055,-2.7039,-2.7048,-2.7049,-2.7094,-2.7109,-2.7133,-2.7237,-2.7247,0,0,0,-2.711,-2.7124,-2.7129,-2.7133,-2.7125,-2.7119,-2.7097,-2.7093,-2.71,-2.7047,-2.711,-2.7118,-2.7132,-2.7142,-2.7151,-2.7161,-2.7058,-2.7057,-2.7057,-2.721,-2.7188,-2.722,-2.7198,-2.7203,-2.7183,-2.7185,-2.7175,-2.715,-2.7166,-2.7167,-2.7233,-2.7246,-2.7253,-2.7263,-2.7181,-2.7181,-2.7181,-2.7181,-2.7286,-2.7302,-2.7272,-2.7291,-2.7268,-2.7285,-2.7268,-2.725,-2.7262,-2.723,-2.724,-2.7205,-2.7264,-2.7272,-2.7184,-2.7184,-2.7184,-2.7183,-2.7183,-2.7346,-2.735,-2.7345,-2.7352,-2.7359,-2.7336,-2.735,-2.7329,-2.7309,-2.732,-2.7319,-2.7318,-2.7313,-2.7322,-2.7322,-2.7322,-2.7323,-2.7323,-2.7323,-2.7409,-2.7403,-2.7416,-2.7413,-2.7414,-2.7413,-2.7396,-2.7397,-2.7392,-2.7376,-2.7375,-2.7349,-2.7276,-2.7256,-2.7326,-2.7326,-2.7325,-2.7325,-2.7325,-2.7488,-2.7468,-2.7489,-2.7491,-2.7485,-2.7495,-2.747,-2.7474,-2.7472,-2.7479,-2.7452,-2.7402,-2.7387,-2.738,-2.7364,-2.7458,-2.7458,-2.7458,-2.7458,-2.7537,-2.753,-2.7547,-2.7551,-2.7553,-2.7534,-2.7559,-2.7547,-2.7531,-2.7528,-2.7513,-2.749,-2.7485,-2.7473,-2.7464,-2.7448,-2.7561,-2.7561,-2.7562,-2.7584,-2.7576,-2.76,-2.7585,-2.7581,-2.7577,-2.76,-2.7606,-2.7584,-2.7565,-2.7526,-2.7521,-2.7485,-2.7475,-2.745,-2.7437,-2.7407,0,0]},{"header":{"parameterUnit":"m.s-1","parameterCategory":1,"la1":30.2992,"la2":30.254,"lo1":-89.0895,"lo2":-89.0443,"dy":0.0025,"dx":0.0025,"nx":19,"ny":19,"refTime":"2026-05-20T09:00:00:Z","depth":0,"parameterNumber":3,"parameterNumberName":"V-component_of_WINDS"},"data":[0,0,0,4.2628,4.2628,4.2634,4.2634,4.2637,4.2637,0,0,0,0,0,0,0,0,0,0,0,4.2623,4.2623,4.2628,4.2628,4.2634,4.2634,4.2637,4.2637,0,0,0,0,0,0,0,0,0,0,0,4.2623,4.2623,4.2623,4.2628,4.2634,4.2634,4.2637,4.2634,0,0,0,0,0,0,0,0,0,0,4.2629,4.2622,4.2623,4.2623,4.2628,4.2634,4.2634,4.2634,4.2634,4.2632,0,4.2631,0,4.2634,4.2637,4.2637,0,0,0,4.2629,4.2622,4.2626,4.2623,4.2628,4.2634,4.2632,4.2634,4.2634,4.2632,4.2631,4.2631,4.2634,4.2637,4.2637,4.2625,4.2624,0,0,4.2629,4.2623,4.2626,4.2626,4.2626,4.2632,4.2632,4.2634,4.2631,4.2631,4.2631,4.2634,4.2637,4.2637,4.2625,4.2625,0,0,0,4.2627,4.2622,4.2627,4.2626,4.2628,4.2632,4.2632,4.2631,4.2633,4.2631,4.2634,4.2637,4.2637,4.2625,4.2625,4.2614,0,0,0,4.2627,4.2621,4.2627,4.2623,4.2628,4.263,4.2629,4.2633,4.2634,4.2634,4.2637,4.2637,4.2625,4.2625,4.2614,4.2609,0,0,0,4.2624,4.2621,4.2621,4.2622,4.2625,4.263,4.2632,4.2633,4.2635,4.2637,4.2637,4.2625,4.2625,4.2615,4.261,4.2605,0,0,0,4.2618,4.261,4.2621,4.2613,4.2625,4.2624,4.2632,4.2631,4.2631,4.2637,4.2625,4.2625,4.2615,4.2611,4.2606,4.26,4.2597,0,0,4.2604,4.2608,4.2604,4.2614,4.2609,4.2623,4.2616,4.2621,4.2626,4.2624,4.2624,4.2614,4.261,4.2605,4.2583,4.258,0,0,0,4.2597,4.2594,4.2594,4.2595,4.26,4.2604,4.2611,4.2613,4.2613,4.2624,4.2611,4.2609,4.2606,4.2604,4.2602,4.26,4.2623,4.2623,4.2623,4.2567,4.2576,4.257,4.258,4.258,4.2589,4.259,4.2595,4.2601,4.2598,4.2598,4.2583,4.258,4.2579,4.2577,4.2595,4.2595,4.2595,4.2595,4.2547,4.2545,4.2557,4.2555,4.2564,4.2563,4.2571,4.2576,4.2576,4.2584,4.2582,4.259,4.2576,4.2575,4.2594,4.2595,4.2595,4.2595,4.2595,4.2529,4.2529,4.2534,4.2537,4.2539,4.2549,4.2549,4.2557,4.2564,4.2562,4.2563,4.2564,4.2565,4.2562,4.2562,4.2562,4.2562,4.2562,4.2562,4.2508,4.2513,4.2513,4.252,4.2522,4.2527,4.2537,4.2539,4.2544,4.255,4.255,4.2557,4.2573,4.2577,4.2561,4.2562,4.2562,4.2562,4.2562,4.2485,4.2492,4.2492,4.2495,4.2504,4.2506,4.2517,4.2522,4.2525,4.2525,4.2534,4.2544,4.2548,4.2549,4.2553,4.2531,4.2531,4.2531,4.2531,4.2469,4.2473,4.2476,4.248,4.2485,4.2496,4.2496,4.2504,4.2513,4.2516,4.252,4.2525,4.2527,4.253,4.2532,4.2535,4.251,4.251,4.251,4.2456,4.2461,4.2459,4.247,4.2479,4.2486,4.2486,4.249,4.2502,4.2509,4.2518,4.2519,4.2528,4.253,4.2536,4.2539,4.2545,0,0]}]]